Location: *
(53.4003°S, 165.3236°W)
Time: 02:40:34
(UTC+00:00)

Cosmos 1461 - Pass Details

Date: 11 December 2023
Orbit: 497 x 602 km, 65.0° (Epoch: 24 February)

Event Time Altitude Azimuth Distance (km) Brightness Sun altitude
Rises 11:57:42 0° 225° (SW) 2,747 6.8 -12.4°
Reaches altitude 10° 11:59:53 10° 226° (SW) 1,867 5.9 -12.3°
Maximum altitude 12:04:06 80° 312° (NW) 594 2.8 -12.1°
Drops below altitude 10° 12:08:25 10° 38° (NE) 1,917 5.2 -11.9°
Enters shadow 12:10:24 - 38° (NE) 2,709 6.0 -11.8°
